Miscellaneous Local Product
Issued by NWS North Platte, NE

Home | Current Version | Previous Version | Text Only | Print | Product List | Glossary On
Versions: 1 2 3 4 5 6 7 8 9 10 11 12 13 14 15 16 17 18 19 20 21 22 23 24 25 26 27 28 29 30 31 32 33 34 35 36 37 38 39 40 41 42 43 44 45 46 47 48 49 50
895
AXUS43 KLBF 221910
MISLBF


WESTERN AND NORTH CENTRAL NEBRASKA HOURLY WEATHER ROUNDUP
NATIONAL WEATHER SERVICE NORTH PLATTE NE
100 PM CST WED NOV 22 2017

NOTE: "FAIR" INDICATES FEW OR NO CLOUDS BELOW 12,000 FEET WITH NO
SIGNIFICANT WEATHER AND/OR OBSTRUCTIONS TO VISIBILITY.

NOTE: STATIONS NOT REPORTING VARIABLES SUCH AS SKY/WEATHER OR
PRESSURE ARE PROVIDED BY RAWS AND APRS NETWORKS AND ARE NOT UNDER
NATIONAL WEATHER SERVICE QUALITY CONTROL.

...OBSERVATIONS IN AND NEAR THE EASTERN PANHANDLE OF NEBRASKA...

CITY           SKY/WX    TMP DP  RH WIND       PRES   REMARKS
PINE RIDGE     SUNNY     65  37  35 W13       30.07F
GORDON         FAIR      63  36  36 W16       30.07F
CHADRON        SUNNY     64  39  39 NW10      30.08F
ALLIANCE       SUNNY     67  37  33 NW15G25   30.10F
SIDNEY         SUNNY     68  37  32 NW26G37   30.15F
CRESCENT LAKE    N/A     67  37  33 NW12G18     N/A
$$

...OBSERVATIONS IN NORTHERN NEBRASKA AND FAR SOUTHERN SOUTH DAKOTA...

CITY           SKY/WX    TMP DP  RH WIND       PRES   REMARKS
WINNER         FAIR      62  35  36 SW13      29.97F
VALENTINE      SUNNY     66  35  31 W14       30.00F
THEDFORD       SUNNY     66  37  33 SW10G16   30.05F
AINSWORTH      SUNNY     62  35  36 W10G16    30.01F
O`NEILL        SUNNY     44  25  47 S16G24    30.05F
ORD            CLOUDY    47  24  40 SW17      30.09F
BROKEN BOW     SUNNY     53  29  39 SW10      30.08F
VALENTINE NWR    N/A     63  34  34 W13G20      N/A
HALSEY           N/A     58  30  34 SW6         N/A
BUTTE            N/A     47  27  46 SW15        N/A
CHAMBERS         N/A     44  24  45 W7          N/A
EWING            N/A     42  24  48 SW17        N/A
$$

...OBSERVATIONS IN SOUTHWEST NEBRASKA AND FAR NORTHEAST COLORADO...

CITY           SKY/WX    TMP DP  RH WIND       PRES   REMARKS
HOLYOKE        FAIR      72  37  28 NW14G21   30.15F
IMPERIAL       SUNNY     66  36  32 W14       30.12F
OGALLALA       SUNNY     68  38  33 NW23      30.10F
NORTH PLATTE   SUNNY     60  36  40 SW7       30.10F
MCCOOK         SUNNY     57  34  41 SW5       30.13F
LEXINGTON      SUNNY     51  29  42 SW14      30.13F
STAPLETON        N/A     57  37  48 CALM        N/A
GOTHENBURG       N/A     54  29  38 SW5         N/A
CALLAWAY         N/A     56  34  43 SW9         N/A
$$

...OBSERVATIONS IN CENTRAL LINCOLN COUNTY AREA...

CITY           SKY/WX    TMP DP  RH WIND       PRES   REMARKS
N.P. AIRPORT   SUNNY     60  36  40 SW7       30.10F
N.P. DOWNTOWN    N/A     59  40  48 MISG        N/A
N.P. SOUTHEAST   N/A     60  39  46 MISG        N/A
N.P. HILLCREST   N/A     57  39  51 W9          N/A
$$

...SOME OBSERVATIONS FROM AROUND THE REGION...

CITY           SKY/WX    TMP DP  RH WIND       PRES   REMARKS
DENVER         PTSUNNY   67  32  27 NW6       30.22F
COPPER MTN     FOG       34  32  93 MISG      30.62S VSB 1/4
GRAND JUNCTION SUNNY     55  34  45 S5        30.45F
LARAMIE        CLOUDY    52  38  58 W33G41    30.31F
CHEYENNE       CLOUDY    59  38  45 W24G32    30.25F
CASPER         CLOUDY    57  37  47 SW22G28   30.23F
BISMARCK       CLOUDY    47  24  40 SW6       29.83F
RAPID CITY     SUNNY     72  37  28 NW32G41   30.01F
PIERRE         SUNNY     48  28  46 SW13      29.93F
SIOUX FALLS    CLOUDY    35  17  47 S18       30.09F WCI  24
OMAHA          PTSUNNY   35  13  40 S15       30.26F WCI  25
GRAND ISLAND   CLOUDY    44  19  36 S16G23    30.15F
SCOTTSBLUFF    SUNNY     69  38  32 NW15G23   30.13F
KANSAS CITY    SUNNY     38  13  35 SW10      30.32F WCI  31
HILL CITY      SUNNY     57  30  35 SW15      30.17F
WICHITA        MOSUNNY   41  16  36 S7        30.33F
DODGE CITY     SUNNY     53  23  31 S18       30.24F
OKLAHOMA CITY  MOSUNNY   42  17  36 NW8       30.37F
DALLAS         PTSUNNY   53  18  25 NW10      30.32F
AMARILLO       CLOUDY    57  28  33 SW13G21   30.29F
$$




USA.gov is the U.S. government's official web portal to all federal, state and local government web resources and services.